This is the latest recevied weather packets stored in our database for station/object KO4WIL-13. If no packets are shown the sender has not sent any weather packets the latest 10 day(s).
| Time | Temp. | Humidity | Pressure | Rain* | Wind** | Luminosity | Snow |
|---|---|---|---|---|---|---|---|
| 1777837215 | 15° C | 42% | 970.6 hPa | 0 mm | - | - | - |
| 1777836913 | 15° C | 44% | 970.5 hPa | 0 mm | - | - | - |
| 1777836611 | 15° C | 44% | 970.6 hPa | 0 mm | - | - | - |
| 1777836309 | 15° C | 45% | 970.7 hPa | 0 mm | - | - | - |
| 1777836006 | 15° C | 44% | 970.8 hPa | 0 mm | - | - | - |
| 1777835704 | 15° C | 44% | 970.9 hPa | 0 mm | - | - | - |
| 1777835402 | 15° C | 46% | 970.9 hPa | 0 mm | - | - | - |
| 1777835097 | 14.44° C | 42% | 971 hPa | 0 mm | - | - | - |
| 1777834795 | 14.44° C | 43% | 971 hPa | 0 mm | - | - | - |
| 1777834493 | 15° C | 47% | 971 hPa | 0 mm | - | - | - |
| 1777834191 | 14.44° C | 50% | 971.1 hPa | 0 mm | - | - | - |
| 1777833889 | 14.44° C | 44% | 971.2 hPa | 0 mm | - | - | - |
| 1777833587 | 13.89° C | 48% | 971.2 hPa | 0 mm | - | - | - |
| 1777833285 | 13.89° C | 44% | 971.2 hPa | 0 mm | - | - | - |
| 1777832982 | 14.44° C | 48% | 971.3 hPa | 0 mm | - | - | - |
| 1777832680 | 13.89° C | 46% | 971.4 hPa | 0 mm | - | - | - |
| 1777832379 | 13.89° C | 44% | 971.5 hPa | 0 mm | - | - | - |
| 1777832076 | 13.89° C | 49% | 971.5 hPa | 0 mm | - | - | - |
| 1777831774 | 13.89° C | 43% | 971.5 hPa | 0 mm | - | - | - |
| 1777831472 | 13.89° C | 49% | 971.5 hPa | 0 mm | - | - | - |
| 1777831170 | 13.33° C | 50% | 971.6 hPa | 0 mm | - | - | - |
| 1777830868 | 13.33° C | 46% | 971.7 hPa | 0 mm | - | - | - |
| 1777830566 | 13.33° C | 48% | 971.7 hPa | 0 mm | - | - | - |
| 1777830264 | 13.33° C | 47% | 971.7 hPa | 0 mm | - | - | - |
| 1777829962 | 12.78° C | 49% | 971.8 hPa | 0 mm | - | - | - |
* Rain latest hour (hover to see other rain measurements)
** Current wind speed in m/s (hover to see current wind gust speed)